RH
35 36 35 34 32 31 32 32 32 32 32 31 30 26 21 10 9 11 14 13 13 12 12 10 15 15 14 18 20 15 9 12 13 9 9 13 12 12 12 12 15 15 18 18 19 18 16
37 36 34 31 30 28 26 27 30 32 31 30 28 28 25 17 10 15 14 13 14 13 10 11 14 15 18 18 20 17 9 11 12 14 10 11 15 13 13 14 15 18 17 16 18 18 21
36 34 32 30 28 25 23 21 21 25 29 28 26 26 26 24 16 15 15 15 15 15 14 14 13 14 19 19 20 18 16 12 14 14 14 14 10 16 17 17 18 20 22 20 19 20 21
35 33 30 28 25 23 21 19 16 15 18 19 25 22 25 26 24 21 16 17 15 15 16 15 14 14 20 17 19 20 19 14 14 14 13 14 16 20 21 20 19 20 22 25 24 23 23
33 30 28 25 23 21 19 17 14 12 10 10 12 18 19 24 23 18 20 16 15 15 15 16 16 16 22 17 18 20 19 17 12 11 16 15 16 24 26 23 22 22 26 24 25 25 25
30 27 24 23 21 20 18 15 12 10 8 8 12 14 15 17 23 16 18 16 14 16 12 17 17 20 20 22 19 21 20 20 17 12 23 27 24 19 17 22 31 27 28 24 28 27 27
27 24 22 21 20 18 16 14 12 10 9 9 13 14 14 16 20 15 18 19 17 28 17 24 22 23 22 20 20 24 20 20 21 23 21 25 23 27 21 24 24 31 36 38 31 28 35
23 21 20 19 18 16 15 14 12 12 10 9 9 15 14 17 18 16 18 20 17 20 26 20 21 22 23 22 26 25 21 26 23 24 24 26 29 22 21 23 28 33 41 45 31 30 34
20 20 19 18 17 15 14 14 13 12 11 9 8 12 14 19 18 18 18 19 18 18 24 26 22 23 24 23 30 29 24 29 26 25 29 29 26 23 24 26 34 36 41 40 43 37 36
19 18 18 16 15 14 14 13 12 12 11 11 8 10 13 19 19 16 18 19 19 21 25 24 25 25 29 24 30 26 29 30 29 32 31 30 28 28 29 30 35 49 33 36 44 56 74
18 17 16 15 14 13 13 12 11 11 10 10 10 10 12 17 19 14 15 17 24 25 56 26 26 24 26 31 32 34 30 36 34 34 38 40 34 34 38 35 35 42 38 43 46 60 76
17 16 15 14 14 13 12 10 10 9 9 9 10 10 11 14 20 18 16 24 31 32 81 26 27 28 25 29 29 34 34 35 38 38 33 37 32 36 39 37 37 35 49 46 45 50 98
16 15 14 13 13 12 11 11 9 8 8 8 9 11 12 13 19 24 24 30 29 34 21 23 27 28 30 30 27 31 31 56 55 49 39 50 40 40 40 49 41 48 70 89 90 99 70
15 15 14 13 13 13 12 11 9 8 8 7 8 11 13 14 17 20 32 28 35 18 18 31 30 27 27 32 29 28 31 31 45 49 46 46 39 48 39 67 91 53 85 83 90 56 48
15 15 14 13 14 14 13 11 10 9 8 7 8 13 17 17 16 18 38 36 24 23 30 26 27 22 21 34 31 26 32 43 50 61 80 48 39 42 40 39 59 64 71 47 97 74 75
15 15 16 15 15 16 14 11 10 10 8 8 9 16 20 18 16 19 27 40 28 32 30 29 24 23 20 21 27 27 29 61 62 52 60 57 71 48 45 46 51 76 56 82 92 90 76
15 16 20 20 20 19 18 15 12 11 9 9 13 32 23 21 16 27 50 37 39 31 35 32 28 31 31 31 32 29 35 53 41 39 46 84 84 54 52 63 94 66 99 75 87 72 80
17 17 23 25 27 27 25 24 18 13 11 10 15 21 26 22 27 30 35 36 33 31 34 34 35 45 38 32 38 32 38 42 47 46 61 65 98 88 49 83 80 76 100 99 78 86 89
21 20 31 37 41 41 39 38 33 25 17 14 35 36 27 20 30 32 38 34 37 34 32 33 34 37 39 38 54 39 41 51 43 42 71 92 92 80 67 80 68 91 95 94 86 80 90
57 42 47 58 57 55 53 50 45 38 30 24 49 49 44 42 58 63 54 38 40 41 37 36 36 35 36 37 33 48 45 51 46 42 50 60 81 88 67 67 69 91 95 88 83 97 79
98 88 74 72 71 64 60 56 51 48 39 33 44 77 74 68 54 55 61 67 52 47 42 39 38 37 49 60 47 46 42 43 48 47 48 61 86 58 56 55 65 80 87 99 98 85 96
95 95 82 78 71 64 66 63 60 58 48 47 87 90 87 76 75 60 67 58 58 53 57 49 45 42 38 58 48 53 46 50 61 50 49 62 84 87 92 74 84 92 84 84 84 88 91
90 84 79 74 71 66 65 62 60 59 57 59 67 69 84 79 63 66 54 53 66 60 58 55 49 50 59 54 53 53 53 53 52 65 68 90 93 96 88 72 90 93 87 82 92 96 92
89 84 81 79 76 70 68 62 63 56 52 35 54 75 91 79 71 58 55 61 65 60 68 61 61 64 66 69 67 65 64 61 58 57 69 93 94 96 92 90 90 83 78 78 89 87 91
99 91 83 76 72 70 67 64 57 50 44 35 22 40 98 95 80 61 61 63 68 65 67 70 66 67 75 74 76 69 40 78 70 60 62 70 89 95 95 83 55 50 58 72 86 82 72
84 80 74 56 43 34 31 27 23 21 20 21 20 20 53 97 62 81 66 62 71 63 57 62 83 86 80 78 75 88 48 36 47 70 59 84 96 97 95 94 82 65 54 54 57 79 84
42 34 25 21 20 21 20 20 20 21 22 23 31 32 35 72 64 70 52 71 61 70 84 81 87 80 82 68 68 60 51 42 56 58 83 86 91 90 87 92 64 50 56 63 88 94 86
22 25 25 26 28 29 29 29 30 30 30 37 45 49 48 52 48 54 84 84 74 60 70 77 61 80 75 82 63 59 71 70 82 70 71 82 82 71 59 73 74 66 69 77 91 85 96
29 33 37 39 43 44 43 42 44 50 61 61 72 53 54 71 81 63 66 66 74 96 96 78 78 94 80 87 86 89 80 75 69 67 57 76 63 58 51 44 55 99 98 98 92 97 96
Wind_Speed
11 11 11 12 12 12 12 11 10 10 10 10 9 8 8 6 3 4 7 6 6 6 3 2 5 12 2 5 5 11 8 8 11 10 3 1 2 2 1 2 0 1 2 1 2 1 2
9 10 10 11 11 11 11 11 10 9 10 11 11 9 7 6 4 6 6 4 3 2 1 1 1 7 8 3 10 9 7 7 6 9 9 5 3 4 5 3 3 3 2 2 2 1 3
8 8 9 9 9 10 10 11 11 10 10 10 11 10 7 6 5 4 4 2 3 3 1 1 1 2 5 5 10 8 7 5 6 6 7 8 4 2 1 3 3 3 3 3 4 1 2
6 6 7 8 8 9 10 11 11 11 10 10 9 10 9 5 6 6 4 5 4 1 4 3 2 1 1 5 12 10 7 4 4 7 4 5 5 6 4 4 2 4 3 5 4 1 2
4 5 6 6 8 8 10 11 11 11 11 10 10 10 10 7 7 7 5 2 7 2 6 3 2 2 1 5 12 14 5 5 2 4 6 5 4 3 1 4 3 5 8 10 4 2 2
3 4 5 6 7 9 10 11 12 12 11 11 11 11 10 8 7 7 4 8 4 8 2 0 3 2 4 4 7 15 7 4 3 2 3 2 0 1 6 6 4 9 9 10 13 2 5
2 3 5 6 8 9 10 12 12 13 12 11 10 12 10 8 6 5 2 3 2 2 5 6 3 2 5 6 3 15 8 2 3 1 2 3 2 5 5 5 5 6 10 15 17 6 7
1 3 5 6 8 9 10 12 13 13 11 11 10 11 10 7 5 4 2 3 4 6 5 5 4 4 5 7 4 13 7 2 3 2 4 4 2 3 1 2 4 8 13 13 10 3 8
1 3 5 6 8 10 11 12 13 13 12 11 10 10 10 5 4 4 1 3 6 5 2 2 3 3 4 5 3 10 10 4 4 3 7 3 4 2 1 3 7 10 8 10 10 17 14
2 3 5 7 9 10 11 13 13 13 12 11 10 10 9 5 3 3 1 3 3 2 3 2 1 2 5 3 1 9 10 4 2 2 3 3 3 0 3 2 2 6 4 7 13 11 5
2 4 6 7 9 10 12 13 14 14 13 11 9 9 8 5 3 3 1 1 1 2 3 3 2 2 5 3 4 3 7 3 3 2 1 2 0 1 3 2 1 5 7 10 7 5 6
1 3 5 7 8 10 12 13 14 15 14 12 10 8 8 6 4 2 0 1 1 3 5 2 1 3 3 2 2 5 2 4 3 1 1 3 2 2 4 3 3 11 10 9 3 2 3
2 3 5 6 8 11 13 14 15 15 15 14 11 8 7 7 4 3 1 0 3 4 2 2 0 3 2 3 1 4 3 3 2 3 2 4 3 3 3 4 3 6 6 4 3 1 3
3 4 6 7 9 11 13 14 15 15 16 14 12 8 6 8 5 3 0 3 5 2 1 1 1 2 3 3 1 3 2 2 2 2 3 3 3 0 3 3 1 4 0 2 5 5 10
3 5 7 9 11 12 14 15 16 16 16 14 12 7 5 7 5 1 1 3 3 3 2 1 2 3 3 2 2 3 2 1 3 3 2 4 2 3 5 1 2 2 1 3 4 2 3
4 6 8 9 11 13 15 16 16 17 16 14 11 5 3 8 6 1 3 2 1 3 2 1 2 1 3 1 3 1 1 1 3 1 0 2 6 2 3 2 3 1 2 2 1 5 6
5 7 7 9 12 14 16 17 17 17 16 14 7 3 4 10 4 1 2 1 1 1 1 2 2 2 2 2 2 2 1 2 1 5 1 1 0 3 3 6 5 3 2 3 2 3 4
6 7 7 8 11 13 16 17 19 18 17 13 4 3 7 8 2 2 0 2 0 1 1 2 2 2 3 1 3 4 3 1 5 6 2 2 2 4 8 3 1 2 4 6 4 4 5
7 6 6 8 10 12 14 17 19 19 18 15 4 3 6 3 2 1 1 1 1 2 2 1 2 2 1 2 4 4 3 2 6 5 4 6 2 5 3 2 1 4 4 4 1 2 13
8 8 7 8 10 12 14 16 17 19 17 11 4 2 5 8 5 3 3 1 1 1 1 1 1 1 1 4 6 4 4 3 6 5 2 3 4 7 11 12 10 6 7 8 8 5 17
9 12 10 10 10 12 15 17 17 17 17 9 7 3 3 3 4 3 1 1 2 2 2 3 4 7 4 3 4 6 5 4 7 6 5 3 7 15 21 21 17 17 15 15 13 20 14
8 11 11 10 12 14 16 18 20 17 16 12 4 3 4 2 3 5 2 3 3 1 3 4 5 4 8 6 9 9 12 12 9 7 6 4 5 5 9 15 17 18 16 19 23 20 21
7 9 10 11 14 15 17 19 19 18 15 7 6 5 2 1 1 3 2 2 3 1 6 11 8 6 9 13 16 19 18 17 17 7 9 6 4 3 10 4 8 9 19 18 4 4 4
9 10 11 13 15 15 16 18 20 18 15 9 6 4 2 3 3 4 6 7 8 12 12 10 9 11 5 11 16 19 20 25 23 22 16 7 4 2 7 3 12 3 4 4 2 3 2
9 11 12 15 15 16 17 18 18 17 14 10 8 5 2 4 7 13 11 11 12 12 13 15 17 9 12 8 5 8 6 2 7 6 11 11 4 3 4 8 15 12 6 5 5 3 6
8 11 13 13 14 16 17 18 18 17 14 11 8 5 3 2 1 6 10 10 9 9 11 8 7 8 3 3 3 4 5 7 3 4 3 1 2 2 1 5 7 4 4 1 3 3 5
9 10 12 14 16 17 17 18 18 17 15 11 8 6 3 4 4 6 5 5 8 6 4 4 5 3 1 3 6 8 11 6 5 5 2 2 2 7 10 7 6 6 7 6 4 4 19
10 11 13 14 15 16 17 17 18 18 16 12 10 10 6 5 11 8 4 4 6 6 5 6 6 1 2 4 3 4 3 2 3 1 2 3 4 5 5 6 10 8 5 4 7 15 17
9 10 12 14 15 16 17 17 17 17 17 17 12 16 12 8 8 13 13 5 0 6 6 5 4 3 3 3 3 3 5 4 5 10 4 5 6 5 3 7 10 8 6 7 9 11 10
Wind_Direction
78 71 64 59 51 44 36 30 26 23 23 18 10 4 2 359 9 344 333 314 278 303 299 308 28 28 53 55 5 348 359 14 21 27 39 91 275 240 253 95 141 261 137 118 136 76 281
80 71 63 56 49 42 35 26 21 16 16 17 13 5 356 359 338 346 360 33 38 341 316 306 319 31 56 42 343 355 1 10 7 40 45 74 60 65 94 56 347 61 121 145 205 248 282
76 69 61 54 43 37 30 23 19 15 10 10 9 5 349 348 338 331 350 353 354 11 42 1 269 1 51 44 8 357 3 8 27 35 49 62 81 23 72 128 121 140 265 218 206 251 298
76 64 57 47 39 30 25 18 14 12 7 2 360 2 353 315 321 304 281 348 300 301 74 23 18 74 121 6 12 8 1 3 30 34 29 44 63 65 43 118 180 261 247 304 131 286 149
73 60 50 41 31 23 20 15 9 4 2 360 356 353 348 325 312 313 260 226 25 276 264 355 16 120 57 335 3 6 359 10 315 342 25 29 56 81 128 295 236 211 324 323 314 135 296
67 43 35 31 25 19 15 11 6 360 357 358 356 351 343 334 319 325 257 226 302 13 239 88 27 146 16 320 340 2 357 1 20 342 346 350 186 200 29 352 352 326 322 311 302 101 267
54 27 18 17 16 13 10 8 5 360 357 355 354 353 347 338 332 333 236 195 280 32 66 96 51 36 351 336 335 357 7 1 1 53 318 11 62 28 17 26 344 318 302 298 302 51 316
57 24 9 7 9 7 4 4 3 1 357 350 350 350 351 344 347 342 224 209 236 154 93 65 57 34 360 4 350 351 7 333 355 14 319 221 70 51 19 329 306 300 298 306 308 53 318
16 14 4 1 3 3 359 359 359 0 356 350 348 351 353 351 356 11 258 210 151 156 269 64 49 35 2 4 26 349 17 5 13 27 9 16 73 103 317 297 326 313 295 312 303 321 279
355 359 2 1 360 359 355 353 353 356 355 351 347 353 354 2 345 333 72 138 170 190 245 102 101 345 354 357 261 3 13 31 51 27 21 52 113 280 275 294 339 300 23 302 307 331 313
352 354 358 1 358 353 350 349 349 350 351 348 347 351 355 6 339 312 222 210 208 148 276 67 78 327 354 19 319 331 10 11 25 52 249 72 259 274 272 24 350 316 320 297 308 287 328
328 350 353 355 354 349 348 347 345 347 347 344 341 340 353 342 359 344 308 141 132 223 250 131 349 342 289 27 14 320 25 45 93 212 61 70 72 356 356 301 252 312 299 247 293 273 279
324 339 347 347 347 346 345 346 346 345 345 342 337 332 344 351 329 332 324 78 237 242 116 134 42 4 341 318 316 13 13 19 346 297 213 167 142 104 4 298 192 304 322 320 289 247 298
319 331 337 341 342 345 345 347 345 344 342 339 332 324 321 343 333 331 255 235 251 45 119 102 287 279 271 351 178 321 275 236 137 280 295 305 238 46 11 61 266 17 98 324 296 315 309
322 332 337 339 343 346 347 348 346 343 341 337 331 316 311 340 336 319 223 246 306 24 31 312 209 252 180 188 289 296 218 323 53 20 211 308 240 128 57 49 334 61 306 11 286 213 266
327 335 339 340 344 346 348 346 347 343 343 337 330 312 293 339 330 272 250 265 318 26 1 280 265 324 286 136 284 265 215 120 157 112 16 73 293 79 108 156 83 64 41 225 190 297 288
332 343 346 346 347 349 351 348 345 345 343 339 331 298 306 337 342 218 248 52 80 80 338 307 309 271 259 288 260 254 298 145 188 152 167 102 303 127 174 193 175 152 202 203 278 271 285
344 352 350 351 353 354 353 352 350 349 349 345 342 273 331 345 228 23 76 17 336 181 240 259 277 284 250 245 262 248 260 53 154 164 180 77 176 262 279 83 22 288 212 192 233 229 227
354 5 6 1 0 0 359 359 0 359 357 355 340 310 345 5 293 83 144 196 237 204 232 231 278 270 359 273 278 257 262 121 173 192 190 191 197 302 215 118 95 227 202 235 312 320 242
15 20 26 18 12 10 5 3 4 5 4 3 358 310 15 51 59 30 345 288 245 184 268 257 291 242 254 243 225 278 253 166 195 213 185 187 240 219 257 280 309 262 217 216 212 244 274
27 20 17 26 19 11 6 3 2 6 10 12 26 49 7 354 39 9 312 308 278 243 218 218 210 226 191 251 243 230 248 209 197 198 189 220 233 254 256 265 275 270 264 233 212 244 255
24 7 11 17 10 7 7 6 6 7 14 41 41 356 344 283 298 294 183 215 242 254 203 216 238 199 211 221 239 275 283 280 269 156 198 171 269 288 263 259 255 263 261 258 251 255 256
3 351 4 6 4 3 1 359 2 3 11 43 33 3 342 267 274 286 261 276 243 199 269 264 264 266 246 260 279 280 283 272 260 207 187 178 216 203 270 301 309 268 237 237 224 197 223
356 0 354 348 349 345 343 346 350 353 1 3 353 328 329 279 248 254 278 264 267 264 263 276 273 273 302 303 302 276 261 257 258 252 197 180 190 204 284 297 263 255 69 60 305 295 259
340 342 343 338 337 337 339 342 344 347 348 350 346 331 335 282 308 292 301 290 293 286 272 273 285 291 290 311 288 294 254 256 239 261 227 221 185 254 256 241 280 303 36 13 29 21 36
335 342 341 350 352 351 348 350 350 351 352 349 350 337 291 311 8 320 304 298 299 297 296 282 307 313 338 268 247 250 266 313 233 149 62 63 355 259 314 265 274 79 55 2 186 245 29
6 358 355 357 358 356 356 355 355 355 355 352 355 346 305 269 296 342 317 317 309 295 274 295 340 313 274 246 247 258 266 265 275 285 103 146 171 234 246 265 277 67 38 312 295 13 334
17 10 8 5 4 3 360 359 359 356 354 359 345 347 333 265 279 294 315 324 306 279 276 343 312 190 236 240 258 278 279 307 289 215 229 223 208 224 230 268 269 4 305 332 338 326 327
17 16 15 10 6 5 3 2 3 1 357 359 353 337 321 260 266 291 304 324 43 258 267 234 258 290 260 251 240 295 246 225 269 271 178 242 231 286 275 310 21 67 63 33 34 50 40